This demonstration page uses our WeatherBlox Daily Observations layout. Learn more.

Left ArrowRight Arrow

40.92501, -98.34201

Hourly Observations for August 14, 2020

Temp ( °F °C ) Dew Point ( °F °C ) Humidity (%) Winds ( mph kmh ) Pressure ( in mb ) Visibility ( mi km ) Precip ( " mm )
12:53 am 00:53 Clear 74 23.3 66 18.9 76 76 S 12 19 29.92 1013 10 16 0.00 0.00
1:53 am 01:53 Clear 72 22.2 66 18.9 82 82 SSE 7 11 29.93 1014 10 16 0.00 0.00
2:53 am 02:53 Clear 71 21.7 66 18.9 84 84 S 10 17 29.91 1013 10 16 0.00 0.00
3:53 am 03:53 Clear 71 21.7 66 18.9 84 84 S 12 19 29.89 1012 10 16 0.00 0.00
4:53 am 04:53 Clear 69 20.6 66 18.9 90 90 S 8 13 29.90 1013 9 14 0.00 0.00
5:53 am 05:53 Clear 69 20.6 66 18.9 90 90 S 7 11 29.89 1012 7 11 0.00 0.00
6:53 am 06:53 Sunny with Mist and Fog 69 20.6 66 18.9 90 90 S 7 11 29.90 1013 5 8 0.00 0.00
7:53 am 07:53 Sunny with Mist and Fog 70 21.1 67 19.4 90 90 SSE 8 13 29.92 1013 6 10 0.00 0.00
8:53 am 08:53 Hazy 73 22.8 68 20 84 84 S 10 17 29.93 1013 5 8 0.00 0.00
9:00 am 09:00 Hazy 73 22.8 68 20 84 84 S 10 17 29.88 1012 5 8 0.00 0.00
9:53 am 09:53 Sunny 77 25 69 20.6 77 77 S 9 15 29.91 1013 7 11 0.00 0.00
10:53 am 10:53 Sunny 83 28.3 71 21.7 67 67 SSW 12 19 29.91 1013 10 16 0.00 0.00
11:53 am 11:53 Mostly Sunny 84 28.9 72 22.2 67 67 SSW 9 15 29.92 1013 10 16 0.00 0.00
12:53 pm 12:53 Sunny 88 31.1 72 22.2 59 59 S 18 30 29.89 1012 10 16 0.00 0.00
1:53 pm 13:53 Mostly Cloudy 90 32.2 72 22.2 56 56 S 13 20 29.91 1013 10 16 0.00 0.00
2:53 pm 14:53 Mostly Cloudy 90 32.2 72 22.2 56 56 SW 12 19 29.91 1013 10 16 0.00 0.00
3:53 pm 15:53 Mostly Cloudy 85 29.4 69 20.6 59 59 WNW 12 19 29.89 1012 10 16 0.00 0.00
4:53 pm 16:53 Mostly Sunny 86 30 68 20 55 55 NW 21 33 29.90 1013 10 16 0.00 0.00
5:53 pm 17:53 Cloudy 85 29.4 68 20 57 57 NNE 8 13 29.93 1014 10 16 0.00 0.00
6:53 pm 18:53 Sunny 83 28.3 70 21.1 65 65 NE 10 17 29.95 1014 10 16 0.00 0.00
7:53 pm 19:53 Mostly Cloudy 80 26.7 69 20.6 69 69 E 3 6 29.96 1014 10 16 0.00 0.00
8:53 pm 20:53 Clear 76 24.4 69 20.6 79 79 N 9 15 29.97 1015 10 16 0.00 0.00
9:53 pm 21:53 Clear 72 22.2 64 17.8 76 76 N 8 13 29.98 1015 10 16 0.00 0.00
10:53 pm 22:53 Clear 68 20 62 16.7 81 81 N 7 11 30.00 1016 10 16 0.00 0.00
11:53 pm 23:53 Clear 68 20 62 16.7 81 81 Calm 30.03 1017 10 16 0.00 0.00

Powered by AerisWeather